Tracking 27188 objects as of 1-Apr-2023
HD Live streaming from Space Station
objects crossing your sky now

STARLINK-3927

Track STARLINK-3927 now!
10-day predictions
STARLINK-3927 is classified as:


NORAD ID: 52569
Int'l Code: 2022-051AN
Perigee: 546.5 km
Apogee: 547.3 km
Inclination: 53.2 °
Period: 95.4 minutes
Semi major axis: 6917 km
RCS: Unknown
Launch date: May 13, 2022
Source: United States (US)
Launch site: AIR FORCE WESTERN TEST RANGE (AFWTR)
Your satellite tracking list
Your tracking list is empty




NASA's NSSDC Master Catalog

Two Line Element Set (TLE):
1 52569U 22051AN  23091.61081341  .00003170  00000-0  21724-3 0  9996
2 52569  53.2146 256.3582 0000564  54.6685 305.4360 15.08826714 49657
Source of the keplerian elements: AFSPC